STARLINK-37479, 68861

Orbit data source: Space-Track

STARLINK-37479, 68861 is a payload satellite owned by SpaceX/Seattle (US) in SSO that was launched on Sun, 26 Apr 2026 UTC via an FALCON 9 launch vehicle from the Air Force Western Test Range (AFWTR). Payload-class satellites include a variety of spacecraft equipped with specific instruments for various scientific and technological missions. These include communications satellites like Starlink; space stations such as the ISS; scientific satellites like the Hubble; Earth observation satellites from companies like Planet Labs, Umbra, and HawkEye 360; GPS; miniature CubeSats for education and research; and military/defense satellites.

Loading next visibility...
Identifier
68861, 2026-094Y
Orbit
SSO
Country
Flag of USUS
Related business
Manufacturer
SpaceX/Seattle
Mission
Operational spacecraft
Bus & Motor
STARLINK V2MO, Unknown motor
Mass
575 kg wet, ~530 kg dry
Launch date (UTC)
2026-04-26 (2 months ago)
Launch vehicle
FALCON 9
Launch site
Air Force Western Test Range (AFWTR)
Object type
Payload
Rocket body
Debris
Shape & HBR
Unknown shape, 14.5 m
Radar Cross Section
Large (>1 m²)

Expand to show TLE details & history
Last TLE update: 22 hours ago

TLE from 22 hours ago
0 STARLINK-37479
1 68861U 26094Y   26170.97355286  .00016965  00000-0  52640-3 0  9998
2 68861  97.2843 185.5034 0001211 101.2484 258.8895 15.33459377  8487
Epoch: 2026-06-19T23:21Z
TLE epoch observation values (Epoch: 2026-06-19T23:21:54.967Z)
Latitude
0.00001°
Longitude
-73.17047°
Altitude
468.772 km
Speed
7.632 km/s
True Right ascension
12h 22m 00s
True Declination
0° 00' 00"
Sunlit
Object was in daylight at epoch
Visualization orbit readout
Latitude
Unknown
Longitude
Unknown
Altitude
Unknown
Speed
Unknown
Apparent Right ascension
Unknown
Apparent Declination
Unknown
Sunlit
N/A
Visualization observer readout
Local Sidereal Time
08:33:17
Azimuth
Unknown
Elevation
Unknown
Doppler factor
Unknown
Orbital elements
Apogee altitude
463.272 km
Perigee altitude
461.615 km
Semi-major axis
6,840.58 km
Eccentricity
0.00012
Inclination
97.2843°
RAAN
185.5034°
Arg. of periapsis
101.2484°
True anomaly
258.87588°
Mean anomaly
258.8895°
Eccentric anomaly
258.88269°
Mean motion
3.83622 °/min
Orbital period
93.84 mins
BSTAR
0.0005264
Loading maneuver chart data...
Computing Atmospheric mass density...
Loading historical data...
Loading historical data...
Loading historical data...
Loading historical data...
Loading historical data...
Loading historical data...
Loading historical data...

Documentation

Showing up to 5 results
|